Location: Newark
(48.9886°N, 1.2358°E)
Time: 06:12:56
(UTC+00:00)

Transit 4A - All Passes

Search period start: 12 November 2019 00:00
Search period end: 22 November 2019 00:00
Orbit: 868 x 976 km, 66.8° (Epoch: 11 November)

Date Brightness Start Highest point End Pass type
(mag) Time Alt. Az. Time Alt. Az. Time Alt. Az.
12 Nov - 00:32:36 10° SW 00:38:45 55° NW 00:44:45 10° NNE visible
12 Nov - 02:22:04 10° WNW 02:26:29 20° NNW 02:30:50 10° NNE visible
12 Nov - 04:12:11 10° NNW 04:15:21 14° N 04:18:29 10° NE visible
12 Nov - 05:59:09 10° NNW 06:04:00 25° NNE 06:08:46 10° E visible
12 Nov - 07:45:18 10° NW 07:51:17 82° NE 07:57:08 10° SE daylight
12 Nov - 09:32:46 10° WNW 09:36:55 20° WSW 09:40:59 10° SSW daylight
12 Nov - 22:55:43 10° S 23:01:44 50° ESE 23:07:39 10° NE night (unlit)
13 Nov - 00:42:22 10° WSW 00:48:16 42° NW 00:54:02 10° NNE visible
13 Nov - 02:32:22 10° WNW 02:36:18 17° NNW 02:40:12 10° NNE visible
13 Nov - 04:21:55 10° NNW 04:25:16 15° N 04:28:36 10° NE visible
13 Nov - 06:08:27 10° NNW 06:13:42 30° NE 06:18:49 10° E visible
13 Nov - 07:54:40 10° NW 08:00:37 73° WSW 08:06:24 10° SSE daylight
13 Nov - 09:43:14 10° WNW 09:45:53 13° WSW 09:48:31 10° SW daylight
13 Nov - 21:22:45 10° SE 21:25:40 14° ESE 21:28:33 10° ENE night (unlit)
13 Nov - 23:04:45 10° SSW 23:11:00 70° ESE 23:17:06 10° NE night (unlit)
14 Nov - 00:52:18 10° W 00:57:51 33° NW 01:03:18 10° NNE visible
14 Nov - 02:42:39 10° NW 02:46:11 15° NNW 02:49:41 10° NNE visible
14 Nov - 04:31:27 10° NNW 04:35:09 16° NNE 04:38:49 10° NE visible
14 Nov - 06:17:43 10° NNW 06:23:18 38° NE 06:28:44 10° ESE visible
14 Nov - 08:04:08 10° NW 08:09:52 52° WSW 08:15:28 10° SSE daylight
14 Nov - 21:30:16 10° SSE 21:34:40 20° ESE 21:38:59 10° ENE night (unlit)
14 Nov - 23:14:01 10° SW 23:20:19 87° WNW 23:26:29 10° NE night (unlit)
15 Nov - 01:02:21 10° W 01:07:31 26° NNW 01:12:35 10° NNE visible
15 Nov - 02:52:51 10° NW 02:56:06 14° N 02:59:17 10° NNE visible
15 Nov - 04:40:52 10° NNW 04:45:00 19° NNE 04:49:04 10° ENE visible
15 Nov - 06:27:01 10° NNW 06:32:50 50° NE 06:38:29 10° ESE visible
15 Nov - 08:13:41 10° NW 08:19:01 36° WSW 08:24:17 10° S daylight
15 Nov - 21:38:29 10° SSE 21:43:44 29° ESE 21:48:53 10° NE night (unlit)
15 Nov - 23:23:29 10° SW 23:29:43 65° NW 23:35:48 10° NNE night (unlit)
16 Nov - 01:12:32 10° WNW 01:17:15 22° NNW 01:21:52 10° NNE visible
16 Nov - 03:02:54 10° NNW 03:06:01 14° N 03:09:06 10° NNE visible
16 Nov - 04:50:13 10° NNW 04:54:48 22° NNE 04:59:16 10° ENE visible
16 Nov - 06:36:20 10° NNW 06:42:17 68° NE 06:48:05 10° SE daylight
16 Nov - 08:23:25 10° NW 08:28:08 25° WSW 08:32:46 10° SSW daylight
16 Nov - 21:47:05 10° S 21:52:52 40° ESE 21:58:32 10° NE night (unlit)
16 Nov - 23:33:08 10° WSW 23:39:11 49° NW 23:45:06 10° NNE night (unlit)
17 Nov - 01:22:48 10° WNW 01:27:02 19° NNW 01:31:12 10° NNE visible
17 Nov - 03:12:45 10° NNW 03:15:56 14° N 03:19:06 10° NE visible
17 Nov - 04:59:31 10° NNW 05:04:31 26° NNE 05:09:24 10° E visible
17 Nov - 06:45:41 10° NW 06:51:39 89° WSW 06:57:29 10° SSE daylight
17 Nov - 08:33:27 10° WNW 08:37:09 17° WSW 08:40:48 10° SW daylight
17 Nov - 20:16:35 10° ESE 20:16:58 10° E 20:17:21 10° E night (unlit)
17 Nov - 21:55:59 10° SSW 22:02:05 57° ESE 22:08:04 10° NE night (unlit)
17 Nov - 23:42:57 10° WSW 23:48:43 38° NW 23:54:22 10° NNE night (unlit)
18 Nov - 01:33:06 10° NW 01:36:53 16° NNW 01:40:36 10° NNE visible
18 Nov - 03:22:23 10° NNW 03:25:51 15° NNE 03:29:16 10° NE visible
18 Nov - 05:08:49 10° NNW 05:14:10 33° NE 05:19:24 10° ESE visible
18 Nov - 06:55:05 10° NW 07:00:57 65° WSW 07:06:41 10° SSE daylight
18 Nov - 08:44:27 10° W 08:46:06 11° W 08:47:45 10° WSW daylight
18 Nov - 20:22:23 10° SE 20:25:55 16° ESE 20:29:24 10° ENE night (unlit)
18 Nov - 22:05:06 10° SSW 22:11:21 78° ESE 22:17:28 10° NE night (unlit)
18 Nov - 23:52:56 10° W 23:58:20 30° NW 00:03:38 10° NNE night (unlit)
19 Nov - 01:43:23 10° NW 01:46:45 15° N 01:50:06 10° NNE visible
19 Nov - 03:31:53 10° NNW 03:35:44 17° NNE 03:39:30 10° ENE visible
19 Nov - 05:18:05 10° NNW 05:23:45 42° NE 05:29:16 10° ESE visible
19 Nov - 07:04:34 10° NW 07:10:10 45° WSW 07:15:40 10° S daylight
19 Nov - 20:30:12 10° SSE 20:34:56 23° ESE 20:39:36 10° ENE night (unlit)
19 Nov - 22:14:26 10° SW 22:20:43 79° NW 22:26:50 10° NE night (unlit)
20 Nov - 00:03:02 10° W 00:08:01 25° NNW 00:12:55 10° NNE night (unlit)
20 Nov - 01:53:32 10° NW 01:56:40 14° N 01:59:46 10° NNE visible
20 Nov - 03:41:16 10° NNW 03:45:33 20° NNE 03:49:44 10° ENE visible
20 Nov - 05:27:23 10° NNW 05:33:14 56° NE 05:38:58 10° SE visible
20 Nov - 07:14:11 10° NW 07:19:19 32° WSW 07:24:22 10° S daylight
20 Nov - 20:38:34 10° S 20:44:02 32° ESE 20:49:24 10° NE night (unlit)
20 Nov - 22:23:58 10° SW 22:30:08 59° NW 22:36:09 10° NNE night (unlit)
21 Nov - 00:13:16 10° WNW 00:17:46 21° NNW 00:22:13 10° NNE night (unlit)
21 Nov - 02:03:31 10° NNW 02:06:36 14° N 02:09:39 10° NNE visible
21 Nov - 03:50:35 10° NNW 03:55:18 23° NNE 03:59:56 10° E visible
21 Nov - 05:36:43 10° NNW 05:42:40 76° NE 05:48:29 10° SE visible
21 Nov - 07:24:00 10° WNW 07:28:23 22° WSW 07:32:43 10° SSW daylight
21 Nov - 20:47:17 10° S 20:53:11 46° ESE 20:58:59 10° NE night (unlit)
21 Nov - 22:33:41 10° WSW 22:39:37 45° NW 22:45:26 10° NNE night (unlit)
